{"data":{"norad_id":58362,"intl_designator":"2023-177M","name":"STARLINK-30890","alt_names":[],"object_type":"PAYLOAD","status":"ACTIVE","operator":null,"country":"US","launch_date":"2023-11-18","launch_site_code":"AFETR","launch_vehicle":null,"mission":null,"orbit_class":"UNKNOWN","rcs_meters":null,"size_class":null,"mass_kg":null,"dimensions":null,"purposes":["comms"],"wikipedia_slug":null,"has_3d_model":false,"image_url":null,"decayed_at":null,"tle_current":{"epoch":"2026-09-19T06:28:45.585984Z","epoch_age_seconds":249953,"freshness":"STALE","line1":"1 58362U 23177M   26262.26997206  .00000437  00000+0  25401-4 0  9992","line2":"2 58362  43.0031 337.3127 0001263 264.5050  95.5658 15.27581639157780","mean_motion":15.27581639,"eccentricity":0.0001263,"inclination_deg":43.0031,"raan_deg":337.3127,"arg_perigee_deg":264.505,"mean_anomaly_deg":95.5658,"bstar":2.5401e-5,"rev_number":15778,"period_min":94.266647571299,"perigee_km":482.17762110433,"apogee_km":483.9107554725,"semimajor_km":6861.1811882884,"source":"CELESTRAK","updated_at":"2026-09-21T09:00:33.843076Z"}}}